Location: Unspecified
(47.5840°N, 122.3000°W)
Time: 21:21:50
(UTC+00:00)

IRIDIUM 114 - Pass Details

Date: 09 December 2025
Orbit: 776 x 779 km, 86.4° (Epoch: 21 January)

Event Time Altitude Azimuth Distance (km) Brightness Sun altitude
Rises 14:08:08 0° 179° (S) 3,249 7.8 -15.6°
Reaches altitude 10° 14:10:28 10° 178° (S) 2,326 7.0 -15.3°
Maximum altitude 14:15:41 81° 92° (E) 795 4.4 -14.4°
Drops below altitude 10° 14:20:56 10° 5° (N) 2,344 6.7 -13.6°
Sets 14:23:17 0° 5° (N) 3,276 7.4 -13.2°
